Flag for China Weather past 2 weeks in Zhengzhou, Henan, China

Now
79 °F

Haze.


Feels Like: 80 °F
Forecast: 69 / 87 °F
Wind: 8 mph from Northwest

Location: Zhengzhou Airport

Current Time: May 29, 2015 at 2:33:14 PM

Latest Report: May 29, 2015 at 2:00 PM


Visibility: 2 mi

Pressure: 29.68 "Hg

Humidity: 54%

Dew point: 61 °F

Location of ZhengzhouLocation

Historic Weather in Zhengzhou — Graph

°F

Zhengzhou temperature yesterday

Maximum temperature yesterday: 79 °F (at 2:00 PM)
Minimum temperature yesterday: 66 °F (at 3:00 AM)
Average temperature yesterday: 72 °F

Past Weeks' High & Low Weather Summary

 TemperatureHumidityPressure
High90 °F (May 18, 2:00 PM)94% (May 23, 5:00 AM)30.07 "Hg (May 23, 5:00 AM)
Low59 °F (May 21, 4:00 AM)17% (May 20, 1:00 PM)29.56 "Hg (May 18, 12:00 AM)
Average73 °F54%29.79 "Hg
* Reported May 14 1:00 PM — May 29 1:00 PM, Zhengzhou, Weather by CustomWeather, © 2015

Note: Actual official high and low records may vary slightly from our data, if they occured in-between our weather recording intervals... More about our weather records

Advertising

Zhengzhou weather history for previous 24 hours

 ConditionsComfort  
Time TempWeatherWind HumidityBarometerVisibility
1:00 PM
Fri, May 29
79 °FHaze.8 mph51%29.71 "Hg2 mi
12:00 PM77 °FHaze.10 mph61%29.71 "Hg1 mi
11:00 AM77 °FHaze.10 mph65%29.74 "Hg1 mi
10:00 AM77 °FHaze.8 mph61%29.74 "Hg1 mi
9:00 AM77 °FHaze.6 mph65%29.71 "Hg1 mi
8:00 AM73 °FHaze.3 mph74%29.71 "Hg1 mi
7:00 AM70 °FFog.1 mph83%29.71 "Hg1 mi
6:00 AM68 °FFog.1 mph88%29.71 "Hg1 mi
5:00 AM68 °FFog.1 mph88%29.71 "Hg2 mi
4:00 AM68 °FFog.1 mph88%29.71 "Hg2 mi
3:00 AM70 °FFog.1 mph78%29.71 "Hg2 mi
2:00 AM70 °FFog.1 mph78%29.68 "Hg2 mi
1:00 AM68 °FLight rain. Fog.3 mph83%29.68 "Hg2 mi
12:00 AM70 °FLight rain. Fog.1 mph78%29.68 "Hg2 mi
11:00 PM
Thu, May 28
72 °FFog.1 mph73%29.68 "Hg2 mi
10:00 PM72 °FOvercast.3 mph73%29.68 "Hg2 mi
9:00 PM73 °FOvercast.3 mph69%29.68 "Hg2 mi
8:00 PM73 °FLight rain. Passing clouds.3 mph69%29.68 "Hg2 mi
7:00 PM73 °FLight rain. Partly sunny.3 mph69%29.65 "Hg2 mi
6:00 PM77 °FHaze.3 mph61%29.62 "Hg3 mi
5:00 PM79 °FHaze.6 mph54%29.62 "Hg3 mi
4:00 PM79 °FHaze.3 mph54%29.62 "Hg3 mi
3:00 PM79 °FHaze.3 mph54%29.65 "Hg3 mi
2:00 PM79 °FHaze.3 mph58%29.65 "Hg2 mi
Weather by CustomWeather, © 2015

See weather overviewHow to use our weather pages